Flag Weather past 2 weeks in Rio de Janeiro, Rio de Janeiro, Brazil

Now
77 °F

Partly sunny.


Feels Like: 79 °F
Forecast: 72 / 76 °F
Wind: 9 mph from Southwest

Location: Rio De Janeiro Airport

Current Time: Nov 28, 2014 at 9:21:21 AM

Latest Report: Nov 28, 2014 at 9:00 AM


Visibility: N/A

Pressure: 29.95 "Hg

Humidity: 79%

Dew point: 70 °F

Location of Rio de JaneiroLocation

Historic Weather in Rio de Janeiro — Graph

°F

Rio de Janeiro temperature yesterday

Maximum temperature yesterday: 81 °F (at 3:00 PM)
Minimum temperature yesterday: 73 °F (at 6:00 AM)
Average temperature yesterday: 76 °F

Past Weeks' High & Low Weather Summary

 TemperatureHumidityPressure
High93 °F (Nov 22, 12:00 PM)100% (Nov 16, 6:00 AM)30.07 "Hg (Nov 16, 6:00 AM)
Low66 °F (Nov 15, 8:00 AM)46% (Nov 22, 6:00 PM)29.62 "Hg (Nov 13, 5:00 PM)
Average76 °F75%29.91 "Hg
* Reported Nov 13 8:00 AM — Nov 28 8:00 AM, Rio de Janeiro, Weather by CustomWeather, © 2014

Note: Actual official high and low records may vary slightly from our data, if they occured in-between our weather recording intervals... More about our weather records

Advertising

Rio de Janeiro weather history for previous 24 hours

 ConditionsComfort  
Time TempWeatherWind HumidityBarometerVisibility
8:00 AM
Nov 28
77 °FPartly sunny.6 mph79%29.92 "HgN/A
7:00 AM75 °FPartly sunny.6 mph83%29.92 "HgN/A
6:00 AM73 °FPartly sunny.No wind94%29.89 "HgN/A
11:00 PM
Nov 27
73 °FMostly cloudy.7 mph94%29.92 "Hg4 mi
10:00 PM75 °FMostly cloudy.No wind89%29.92 "Hg4 mi
9:00 PM75 °FMostly cloudy.2 mph89%29.89 "Hg4 mi
8:00 PM77 °FLight rain. Overcast.8 mph83%29.89 "Hg4 mi
7:00 PM75 °FCloudy.9 mph89%29.86 "Hg4 mi
6:00 PM75 °FLight rain. Fog.10 mph89%N/A3 mi
5:00 PM77 °FLight rain. Broken clouds.10 mph83%29.83 "Hg4 mi
4:00 PM79 °FLight rain. Partly sunny.10 mph79%29.83 "Hg5 mi
3:00 PM81 °FPartly sunny.12 mph74%29.83 "Hg4 mi
2:00 PM77 °FLight rain. Cloudy.8 mph89%29.83 "Hg4 mi
1:00 PM75 °FLight rain. Fog.9 mph89%N/A3 mi
12:00 PM77 °FFog.12 mph89%29.86 "Hg3 mi
11:00 AM75 °FFog.8 mph89%29.86 "Hg1 mi
10:00 AM77 °FFog.8 mph89%29.86 "Hg1 mi
9:00 AM75 °FFog.8 mph94%29.83 "Hg2 mi
Weather by CustomWeather, © 2014

See weather overviewHow to use our weather pages